Time,TemperatureF,DewpointF,PressureIn,WindDirection,WindDirectionDegrees,WindSpeedMPH,WindSpeedGustMPH,Humidity,HourlyPrecipIn,Conditions,Clouds,dailyrainin,SolarRadiationWatts/m^2,SoftwareType,DateUTC
2013-05-04 00:02:00,66.4,62.1,29.86,East,86,5.0,13.0,86,0.01,,,0.03,0.0,meteohub,2013-05-04 04:02:00,
2013-05-04 00:03:00,66.4,62.1,29.86,ENE,71,2.0,13.0,86,0.01,,,0.03,0.0,meteohub,2013-05-04 04:03:00,
2013-05-04 00:07:00,66.6,62.2,29.86,ENE,57,3.0,13.0,86,0.01,,,0.03,0.0,meteohub,2013-05-04 04:07:00,
2013-05-04 00:09:00,66.6,62.2,29.86,East,82,0.0,13.0,86,0.01,,,0.03,0.0,meteohub,2013-05-04 04:09:00,
2013-05-04 00:15:00,66.6,62.2,29.86,NE,46,1.0,13.0,86,0.01,,,0.03,0.0,meteohub,2013-05-04 04:15:00,
2013-05-04 00:22:00,66.7,62.1,29.86,East,83,0.0,6.0,85,0.01,,,0.03,0.0,meteohub,2013-05-04 04:22:00,
2013-05-04 00:27:00,66.6,61.9,29.86,ENE,76,0.0,5.0,85,0.01,,,0.03,0.0,meteohub,2013-05-04 04:27:00,
2013-05-04 00:32:00,66.7,62.1,29.86,NE,55,0.0,5.0,85,0.01,,,0.03,0.0,meteohub,2013-05-04 04:32:00,
2013-05-04 00:37:00,66.7,62.1,29.86,NE,55,0.0,5.0,85,0.01,,,0.03,0.0,meteohub,2013-05-04 04:37:00,
2013-05-04 00:44:00,66.7,62.1,29.86,ENE,63,0.0,5.0,85,0.01,,,0.03,0.0,meteohub,2013-05-04 04:44:00,
2013-05-04 00:50:00,66.7,62.1,29.86,East,81,0.0,6.0,85,0.01,,,0.03,0.0,meteohub,2013-05-04 04:50:00,
2013-05-04 00:56:00,66.7,62.1,29.86,East,80,0.0,6.0,85,0.00,,,0.03,0.0,meteohub,2013-05-04 04:56:00,
2013-05-04 01:02:00,66.7,62.1,29.86,ESE,109,0.0,6.0,85,0.00,,,0.03,0.0,meteohub,2013-05-04 05:02:00,
2013-05-04 01:07:00,66.7,62.1,29.86,ESE,105,0.0,4.0,85,0.00,,,0.03,0.0,meteohub,2013-05-04 05:07:00,
2013-05-04 01:12:00,66.7,62.4,29.86,North,5,0.0,4.0,86,0.00,,,0.03,0.0,meteohub,2013-05-04 05:12:00,
2013-05-04 01:17:00,66.6,62.2,29.86,East,86,0.0,4.0,86,0.00,,,0.03,0.0,meteohub,2013-05-04 05:17:00,
2013-05-04 01:22:00,66.4,62.1,29.85,East,80,0.0,4.0,86,0.00,,,0.03,0.0,meteohub,2013-05-04 05:22:00,
2013-05-04 01:27:00,66.0,61.3,29.85,NE,53,0.0,5.0,85,0.00,,,0.03,0.0,meteohub,2013-05-04 05:27:00,
2013-05-04 01:32:00,66.0,61.3,29.85,NE,53,0.0,5.0,85,0.00,,,0.03,0.0,meteohub,2013-05-04 05:32:00,
2013-05-04 01:37:00,65.8,61.2,29.85,ENE,67,0.0,6.0,85,0.00,,,0.03,0.0,meteohub,2013-05-04 05:37:00,
2013-05-04 01:42:00,65.8,61.2,29.84,ENE,67,0.0,6.0,85,0.00,,,0.03,0.0,meteohub,2013-05-04 05:42:00,
2013-05-04 01:47:00,65.8,60.8,29.85,ENE,71,0.0,3.0,84,0.00,,,0.03,0.0,meteohub,2013-05-04 05:47:00,
2013-05-04 01:52:00,65.8,60.8,29.85,East,81,0.0,3.0,84,0.00,,,0.03,0.0,meteohub,2013-05-04 05:52:00,
2013-05-04 01:57:00,65.8,60.8,29.84,NE,39,0.0,4.0,84,0.00,,,0.03,0.0,meteohub,2013-05-04 05:57:00,
2013-05-04 02:02:00,66.0,61.0,29.84,NE,50,0.0,4.0,84,0.00,,,0.03,0.0,meteohub,2013-05-04 06:02:00,
2013-05-04 02:09:00,66.2,60.8,29.83,East,91,0.0,4.0,83,0.00,,,0.03,0.0,meteohub,2013-05-04 06:09:00,
2013-05-04 02:15:00,66.4,60.8,29.83,ENE,61,5.0,6.0,82,0.00,,,0.03,0.0,meteohub,2013-05-04 06:15:00,
2013-05-04 02:22:00,66.6,60.3,29.83,NE,44,0.0,6.0,80,0.00,,,0.03,0.0,meteohub,2013-05-04 06:22:00,
2013-05-04 02:27:00,66.6,59.5,29.83,NNE,33,0.0,6.0,78,0.00,,,0.03,0.0,meteohub,2013-05-04 06:27:00,
2013-05-04 02:32:00,66.7,59.4,29.83,East,81,2.0,6.0,77,0.00,,,0.03,0.0,meteohub,2013-05-04 06:32:00,
2013-05-04 02:37:00,66.7,59.0,29.82,NNE,29,0.0,5.0,76,0.00,,,0.03,0.0,meteohub,2013-05-04 06:37:00,
2013-05-04 02:44:00,66.9,59.2,29.82,ENE,67,4.0,6.0,76,0.00,,,0.03,0.0,meteohub,2013-05-04 06:44:00,
2013-05-04 02:50:00,66.9,59.5,29.82,ENE,75,0.0,6.0,77,0.00,,,0.03,0.0,meteohub,2013-05-04 06:50:00,
2013-05-04 02:56:00,66.9,59.5,29.82,WNW,293,1.0,8.0,77,0.00,,,0.03,0.0,meteohub,2013-05-04 06:56:00,
2013-05-04 03:02:00,66.9,59.5,29.82,ESE,103,1.0,8.0,77,0.00,,,0.03,0.0,meteohub,2013-05-04 07:02:00,
2013-05-04 03:07:00,66.7,59.4,29.82,NNW,337,1.0,7.0,77,0.00,,,0.03,0.0,meteohub,2013-05-04 07:07:00,
2013-05-04 03:12:00,66.7,59.7,29.82,ENE,63,0.0,7.0,78,0.01,,,0.04,0.0,meteohub,2013-05-04 07:12:00,
2013-05-04 03:17:00,66.6,59.2,29.81,ENE,71,2.0,7.0,77,0.01,,,0.04,0.0,meteohub,2013-05-04 07:17:00,
2013-05-04 03:22:00,66.4,59.0,29.81,East,82,0.0,9.0,77,0.01,,,0.04,0.0,meteohub,2013-05-04 07:22:00,
2013-05-04 03:27:00,66.0,58.6,29.81,NNE,33,0.0,9.0,77,0.01,,,0.04,0.0,meteohub,2013-05-04 07:27:00,
2013-05-04 03:32:00,65.8,58.5,29.81,East,87,0.0,9.0,77,0.01,,,0.04,0.0,meteohub,2013-05-04 07:32:00,
2013-05-04 03:37:00,65.7,58.6,29.81,SSE,166,0.0,7.0,78,0.01,,,0.04,0.0,meteohub,2013-05-04 07:37:00,
2013-05-04 03:42:00,65.5,58.5,29.81,ENE,67,0.0,6.0,78,0.01,,,0.04,0.0,meteohub,2013-05-04 07:42:00,
2013-05-04 03:47:00,65.5,58.5,29.81,East,82,0.0,6.0,78,0.01,,,0.04,0.0,meteohub,2013-05-04 07:47:00,
2013-05-04 03:52:00,65.1,58.1,29.81,NE,46,4.0,6.0,78,0.01,,,0.04,0.0,meteohub,2013-05-04 07:52:00,
2013-05-04 03:57:00,64.9,58.3,29.81,NE,51,0.0,11.0,79,0.01,,,0.04,0.0,meteohub,2013-05-04 07:57:00,
2013-05-04 04:02:00,64.8,58.5,29.82,East,94,0.0,11.0,80,0.01,,,0.04,0.0,meteohub,2013-05-04 08:02:00,
2013-05-04 04:07:00,64.6,58.6,29.82,East,80,0.0,11.0,81,0.01,,,0.04,0.0,meteohub,2013-05-04 08:07:00,
2013-05-04 04:12:00,64.4,58.8,29.82,North,5,2.0,6.0,82,0.00,,,0.04,0.0,meteohub,2013-05-04 08:12:00,
2013-05-04 04:17:00,64.2,59.0,29.82,ENE,77,0.0,5.0,83,0.00,,,0.04,0.0,meteohub,2013-05-04 08:17:00,
2013-05-04 04:22:00,64.0,59.2,29.82,ENE,71,0.0,5.0,84,0.00,,,0.04,0.0,meteohub,2013-05-04 08:22:00,
2013-05-04 04:27:00,64.0,59.4,29.82,NE,49,0.0,5.0,85,0.00,,,0.04,0.0,meteohub,2013-05-04 08:27:00,
2013-05-04 04:32:00,63.9,59.2,29.82,NE,54,3.0,5.0,85,0.00,,,0.04,0.0,meteohub,2013-05-04 08:32:00,
2013-05-04 04:37:00,63.9,59.5,29.81,East,85,0.0,5.0,86,0.00,,,0.04,0.0,meteohub,2013-05-04 08:37:00,
2013-05-04 04:42:00,63.7,59.7,29.81,ENE,59,0.0,7.0,87,0.00,,,0.04,0.0,meteohub,2013-05-04 08:42:00,
2013-05-04 04:47:00,63.7,60.1,29.81,ENE,66,0.0,9.0,88,0.00,,,0.04,0.0,meteohub,2013-05-04 08:47:00,
2013-05-04 04:52:00,63.7,60.1,29.81,East,80,1.0,9.0,88,0.00,,,0.04,0.0,meteohub,2013-05-04 08:52:00,
2013-05-04 04:57:00,63.7,60.1,29.81,NNW,327,0.0,4.0,88,0.00,,,0.04,0.0,meteohub,2013-05-04 08:57:00,
2013-05-04 05:02:00,63.7,60.4,29.81,SSE,158,0.0,6.0,89,0.00,,,0.04,0.0,meteohub,2013-05-04 09:02:00,
2013-05-04 05:08:00,63.7,60.4,29.81,ENE,65,3.0,6.0,89,0.00,,,0.04,0.0,meteohub,2013-05-04 09:08:00,
2013-05-04 05:15:00,63.7,60.4,29.81,SSE,153,0.0,6.0,89,0.00,,,0.04,0.0,meteohub,2013-05-04 09:15:00,
2013-05-04 05:21:00,63.9,60.8,29.81,ENE,74,0.0,9.0,90,0.00,,,0.04,0.0,meteohub,2013-05-04 09:21:00,
2013-05-04 05:27:00,63.9,60.8,29.81,NE,44,1.0,9.0,90,0.00,,,0.04,0.0,meteohub,2013-05-04 09:27:00,
2013-05-04 05:32:00,63.9,60.8,29.81,North,0,1.0,9.0,90,0.00,,,0.04,0.0,meteohub,2013-05-04 09:32:00,
2013-05-04 05:37:00,63.9,60.8,29.81,East,80,0.0,9.0,90,0.00,,,0.04,0.0,meteohub,2013-05-04 09:37:00,
2013-05-04 05:42:00,64.0,61.0,29.81,East,86,1.0,9.0,90,0.00,,,0.04,0.0,meteohub,2013-05-04 09:42:00,
2013-05-04 05:47:00,64.0,61.3,29.81,NE,50,0.0,6.0,91,0.00,,,0.04,0.0,meteohub,2013-05-04 09:47:00,
2013-05-04 05:52:00,64.0,61.3,29.81,East,80,1.0,6.0,91,0.00,,,0.04,0.0,meteohub,2013-05-04 09:52:00,
2013-05-04 05:58:00,64.0,61.3,29.81,ENE,73,0.0,5.0,91,0.00,,,0.04,0.0,meteohub,2013-05-04 09:58:00,
2013-05-04 06:04:00,64.0,61.3,29.81,ENE,67,0.0,7.0,91,0.00,,,0.04,0.0,meteohub,2013-05-04 10:04:00,
2013-05-04 06:10:00,64.0,61.3,29.81,ENE,77,0.0,7.0,91,0.00,,,0.04,0.0,meteohub,2013-05-04 10:10:00,
2013-05-04 06:16:00,64.2,61.5,29.82,East,81,2.0,11.0,91,0.00,,,0.04,0.0,meteohub,2013-05-04 10:16:00,
2013-05-04 06:22:00,64.2,61.9,29.81,ESE,110,1.0,7.0,92,0.00,,,0.04,0.0,meteohub,2013-05-04 10:22:00,
2013-05-04 06:27:00,64.2,61.5,29.82,East,84,0.0,7.0,91,0.00,,,0.04,0.0,meteohub,2013-05-04 10:27:00,
2013-05-04 06:32:00,64.2,61.5,29.82,ENE,60,3.0,10.0,91,0.00,,,0.04,0.0,meteohub,2013-05-04 10:32:00,
2013-05-04 06:37:00,64.0,61.3,29.82,East,81,1.0,10.0,91,0.00,,,0.04,0.0,meteohub,2013-05-04 10:37:00,
2013-05-04 06:44:00,64.0,61.3,29.82,East,84,3.0,6.0,91,0.00,,,0.04,5.0,meteohub,2013-05-04 10:44:00,
2013-05-04 06:50:00,64.0,61.0,29.82,ENE,70,1.0,9.0,90,0.00,,,0.04,11.0,meteohub,2013-05-04 10:50:00,
2013-05-04 06:56:00,64.0,61.0,29.82,ENE,69,1.0,9.0,90,0.00,,,0.04,12.0,meteohub,2013-05-04 10:56:00,
2013-05-04 07:02:00,64.0,61.0,29.83,SE,130,0.0,7.0,90,0.00,,,0.04,11.0,meteohub,2013-05-04 11:02:00,
2013-05-04 07:07:00,64.0,61.0,29.83,ENE,68,0.0,6.0,90,0.00,,,0.04,18.0,meteohub,2013-05-04 11:07:00,
2013-05-04 07:12:00,64.0,61.3,29.83,ENE,71,3.0,7.0,91,0.00,,,0.04,25.0,meteohub,2013-05-04 11:12:00,
2013-05-04 07:17:00,64.0,61.0,29.83,East,93,0.0,7.0,90,0.00,,,0.04,23.0,meteohub,2013-05-04 11:17:00,
2013-05-04 07:22:00,64.0,61.0,29.83,ENE,71,4.0,7.0,90,0.00,,,0.04,18.0,meteohub,2013-05-04 11:22:00,
2013-05-04 07:27:00,63.9,60.8,29.83,WNW,283,1.0,6.0,90,0.00,,,0.04,25.0,meteohub,2013-05-04 11:27:00,
2013-05-04 07:32:00,63.9,60.8,29.83,ENE,66,0.0,6.0,90,0.00,,,0.04,32.0,meteohub,2013-05-04 11:32:00,
2013-05-04 07:37:00,63.9,60.8,29.83,ENE,76,0.0,6.0,90,0.00,,,0.04,40.0,meteohub,2013-05-04 11:37:00,
2013-05-04 07:42:00,63.9,60.8,29.83,ENE,59,0.0,5.0,90,0.00,,,0.04,46.0,meteohub,2013-05-04 11:42:00,
2013-05-04 07:47:00,63.9,61.2,29.83,NE,44,4.0,5.0,91,0.00,,,0.04,56.0,meteohub,2013-05-04 11:47:00,
2013-05-04 07:52:00,63.9,61.2,29.83,South,177,1.0,9.0,91,0.00,,,0.04,58.0,meteohub,2013-05-04 11:52:00,
2013-05-04 07:58:00,63.9,61.2,29.83,ENE,57,0.0,9.0,91,0.00,,,0.04,58.0,meteohub,2013-05-04 11:58:00,
2013-05-04 08:07:00,63.9,61.5,29.83,ENE,63,0.0,9.0,92,0.00,,,0.04,63.0,meteohub,2013-05-04 12:07:00,
2013-05-04 08:14:00,63.7,61.3,29.83,NE,52,0.0,6.0,92,0.00,,,0.04,65.0,meteohub,2013-05-04 12:14:00,
2013-05-04 08:22:00,63.7,61.7,29.83,NE,47,0.0,7.0,93,0.00,,,0.04,40.0,meteohub,2013-05-04 12:22:00,
2013-05-04 08:27:00,63.5,61.5,29.83,ENE,62,2.0,7.0,93,0.00,,,0.04,98.0,meteohub,2013-05-04 12:27:00,
2013-05-04 08:33:00,63.5,61.5,29.83,ENE,77,0.0,7.0,93,0.00,,,0.04,109.0,meteohub,2013-05-04 12:33:00,
2013-05-04 08:42:00,63.7,61.7,29.83,ENE,70,2.0,7.0,93,0.00,,,0.04,97.0,meteohub,2013-05-04 12:42:00,
2013-05-04 08:47:00,63.7,61.7,29.83,NE,43,0.0,7.0,93,0.00,,,0.04,84.0,meteohub,2013-05-04 12:47:00,
2013-05-04 08:52:00,63.7,61.9,29.83,East,82,0.0,6.0,94,0.00,,,0.04,67.0,meteohub,2013-05-04 12:52:00,
2013-05-04 08:57:00,63.7,61.9,29.83,NE,35,0.0,4.0,94,0.00,,,0.04,98.0,meteohub,2013-05-04 12:57:00,
2013-05-04 09:02:00,63.7,61.9,29.83,ENE,59,3.0,6.0,94,0.00,,,0.04,109.0,meteohub,2013-05-04 13:02:00,
2013-05-04 09:05:00,63.7,61.9,29.84,East,82,5.0,6.0,94,0.00,,,0.04,109.0,meteohub,2013-05-04 13:05:00,
2013-05-04 09:11:00,63.7,61.9,29.83,NE,53,1.0,9.0,94,0.00,,,0.04,134.0,meteohub,2013-05-04 13:11:00,
2013-05-04 09:17:00,63.9,62.1,29.84,East,82,0.0,9.0,94,0.00,,,0.04,95.0,meteohub,2013-05-04 13:17:00,
2013-05-04 09:22:00,63.9,62.1,29.84,NE,51,0.0,9.0,94,0.00,,,0.04,105.0,meteohub,2013-05-04 13:22:00,
2013-05-04 09:27:00,63.7,61.9,29.84,NE,51,1.0,5.0,94,0.00,,,0.04,84.0,meteohub,2013-05-04 13:27:00,
2013-05-04 09:32:00,63.7,61.9,29.84,NNW,329,3.0,5.0,94,0.00,,,0.04,77.0,meteohub,2013-05-04 13:32:00,
2013-05-04 09:38:00,63.7,61.9,29.84,SSE,160,2.0,12.0,94,0.00,,,0.04,95.0,meteohub,2013-05-04 13:38:00,
2013-05-04 09:44:00,63.7,61.9,29.84,ESE,113,1.0,12.0,94,0.00,,,0.04,127.0,meteohub,2013-05-04 13:44:00,
2013-05-04 09:51:00,63.7,62.2,29.84,ENE,63,2.0,6.0,95,0.00,,,0.04,105.0,meteohub,2013-05-04 13:51:00,
2013-05-04 09:57:00,63.5,62.1,29.84,NE,55,1.0,10.0,95,0.00,,,0.04,90.0,meteohub,2013-05-04 13:57:00,
2013-05-04 10:02:00,63.7,62.2,29.84,ESE,111,1.0,10.0,95,0.00,,,0.04,58.0,meteohub,2013-05-04 14:02:00,
2013-05-04 10:09:00,63.7,62.2,29.84,ESE,115,1.0,10.0,95,0.00,,,0.04,56.0,meteohub,2013-05-04 14:09:00,
2013-05-04 10:15:00,63.7,62.2,29.85,NE,49,1.0,8.0,95,0.00,,,0.04,79.0,meteohub,2013-05-04 14:15:00,
2013-05-04 10:21:00,63.5,62.1,29.85,ENE,67,0.0,8.0,95,0.00,,,0.04,58.0,meteohub,2013-05-04 14:21:00,
2013-05-04 10:27:00,63.3,61.9,29.85,East,100,1.0,7.0,95,0.00,,,0.04,90.0,meteohub,2013-05-04 14:27:00,
2013-05-04 10:32:00,63.1,61.7,29.85,ESE,114,3.0,10.0,95,0.00,,,0.04,113.0,meteohub,2013-05-04 14:32:00,
2013-05-04 10:37:00,63.1,61.7,29.85,East,94,0.0,10.0,95,0.00,,,0.04,146.0,meteohub,2013-05-04 14:37:00,
2013-05-04 10:42:00,63.3,61.9,29.85,NE,55,1.0,10.0,95,0.00,,,0.04,167.0,meteohub,2013-05-04 14:42:00,
2013-05-04 10:47:00,63.5,62.1,29.84,ENE,71,3.0,7.0,95,0.00,,,0.04,178.0,meteohub,2013-05-04 14:47:00,
2013-05-04 10:52:00,63.9,62.8,29.85,SSW,198,0.0,7.0,96,0.00,,,0.04,244.0,meteohub,2013-05-04 14:52:00,
2013-05-04 10:57:00,64.0,63.0,29.84,East,91,1.0,9.0,96,0.00,,,0.04,295.0,meteohub,2013-05-04 14:57:00,
2013-05-04 11:02:00,64.2,63.1,29.84,ESE,108,0.0,11.0,96,0.00,,,0.04,260.0,meteohub,2013-05-04 15:02:00,
2013-05-04 11:07:00,64.6,63.5,29.84,ENE,63,0.0,11.0,96,0.00,,,0.04,257.0,meteohub,2013-05-04 15:07:00,
2013-05-04 11:12:00,64.8,63.7,29.84,ENE,57,0.0,11.0,96,0.00,,,0.04,232.0,meteohub,2013-05-04 15:12:00,
2013-05-04 11:17:00,64.9,63.9,29.84,ENE,76,0.0,9.0,96,0.00,,,0.04,244.0,meteohub,2013-05-04 15:17:00,
2013-05-04 11:22:00,65.1,64.0,29.84,NNW,345,3.0,9.0,96,0.00,,,0.04,338.0,meteohub,2013-05-04 15:22:00,
2013-05-04 11:27:00,65.3,64.0,29.84,ENE,69,0.0,10.0,96,0.00,,,0.04,311.0,meteohub,2013-05-04 15:27:00,
2013-05-04 11:32:00,65.7,64.4,29.84,East,88,0.0,10.0,96,0.00,,,0.04,323.0,meteohub,2013-05-04 15:32:00,
2013-05-04 11:37:00,65.5,64.0,29.84,ENE,69,0.0,10.0,95,0.00,,,0.04,336.0,meteohub,2013-05-04 15:37:00,
2013-05-04 11:42:00,65.5,64.0,29.84,NW,326,0.0,11.0,95,0.00,,,0.04,330.0,meteohub,2013-05-04 15:42:00,
2013-05-04 11:47:00,65.5,64.0,29.84,ENE,70,1.0,13.0,95,0.00,,,0.04,250.0,meteohub,2013-05-04 15:47:00,
2013-05-04 11:52:00,65.5,63.7,29.84,NE,53,0.0,13.0,94,0.00,,,0.04,297.0,meteohub,2013-05-04 15:52:00,
2013-05-04 11:57:00,65.5,63.7,29.84,ENE,61,7.0,13.0,94,0.00,,,0.04,294.0,meteohub,2013-05-04 15:57:00,
2013-05-04 12:02:00,65.3,63.1,29.84,ENE,65,0.0,15.0,93,0.00,,,0.04,320.0,meteohub,2013-05-04 16:02:00,
2013-05-04 12:07:00,65.5,63.3,29.84,ENE,74,1.0,15.0,93,0.00,,,0.04,278.0,meteohub,2013-05-04 16:07:00,
2013-05-04 12:12:00,65.8,63.5,29.84,ESE,115,1.0,15.0,92,0.00,,,0.04,462.0,meteohub,2013-05-04 16:12:00,
2013-05-04 12:17:00,66.0,63.3,29.83,ENE,59,0.0,10.0,91,0.00,,,0.04,441.0,meteohub,2013-05-04 16:17:00,
2013-05-04 12:22:00,66.6,63.5,29.84,ENE,65,4.0,10.0,90,0.00,,,0.04,274.0,meteohub,2013-05-04 16:22:00,
2013-05-04 12:27:00,66.4,62.8,29.84,East,89,1.0,12.0,88,0.00,,,0.04,352.0,meteohub,2013-05-04 16:27:00,
2013-05-04 12:32:00,66.6,63.0,29.83,NE,34,1.0,12.0,88,0.00,,,0.04,431.0,meteohub,2013-05-04 16:32:00,
2013-05-04 12:37:00,66.9,63.0,29.83,East,96,1.0,12.0,87,0.00,,,0.04,438.0,meteohub,2013-05-04 16:37:00,
2013-05-04 12:42:00,67.3,63.3,29.83,ENE,73,2.0,11.0,87,0.00,,,0.04,489.0,meteohub,2013-05-04 16:42:00,
2013-05-04 12:47:00,67.6,64.0,29.83,ENE,70,1.0,11.0,88,0.01,,,0.05,478.0,meteohub,2013-05-04 16:47:00,
2013-05-04 12:52:00,67.8,63.9,29.83,ESE,103,5.0,14.0,87,0.01,,,0.05,406.0,meteohub,2013-05-04 16:52:00,
2013-05-04 12:57:00,68.2,64.2,29.82,East,86,5.0,14.0,87,0.01,,,0.05,383.0,meteohub,2013-05-04 16:57:00,
2013-05-04 13:02:00,68.2,64.2,29.82,ENE,59,8.0,14.0,87,0.01,,,0.05,547.0,meteohub,2013-05-04 17:02:00,
2013-05-04 13:07:00,68.4,64.6,29.82,East,80,5.0,16.0,88,0.01,,,0.05,587.0,meteohub,2013-05-04 17:07:00,
2013-05-04 13:12:00,68.4,64.0,29.81,NE,49,1.0,16.0,86,0.01,,,0.05,492.0,meteohub,2013-05-04 17:12:00,
2013-05-04 13:17:00,68.5,64.6,29.81,NE,38,5.0,16.0,87,0.01,,,0.05,383.0,meteohub,2013-05-04 17:17:00,
2013-05-04 13:22:00,68.7,64.4,29.82,NW,325,0.0,12.0,86,0.01,,,0.05,250.0,meteohub,2013-05-04 17:22:00,
2013-05-04 13:27:00,68.4,64.0,29.82,East,86,3.0,12.0,86,0.01,,,0.05,250.0,meteohub,2013-05-04 17:27:00,
2013-05-04 13:32:00,68.0,63.7,29.82,NNW,329,0.0,12.0,86,0.01,,,0.05,172.0,meteohub,2013-05-04 17:32:00,
2013-05-04 13:37:00,67.5,63.5,29.81,ENE,75,1.0,13.0,87,0.01,,,0.05,195.0,meteohub,2013-05-04 17:37:00,
2013-05-04 13:42:00,67.3,63.7,29.82,East,93,3.0,13.0,88,0.00,,,0.05,202.0,meteohub,2013-05-04 17:42:00,
2013-05-04 13:47:00,66.9,63.3,29.82,East,96,0.0,14.0,88,0.00,,,0.05,165.0,meteohub,2013-05-04 17:47:00,
2013-05-04 13:52:00,66.7,63.3,29.81,ENE,67,3.0,14.0,89,0.00,,,0.05,172.0,meteohub,2013-05-04 17:52:00,
2013-05-04 13:57:00,66.6,63.1,29.81,ENE,71,4.0,14.0,89,0.00,,,0.05,218.0,meteohub,2013-05-04 17:57:00,
2013-05-04 14:02:00,66.4,63.3,29.81,East,80,0.0,10.0,90,0.00,,,0.05,311.0,meteohub,2013-05-04 18:02:00,
2013-05-04 14:07:00,66.6,63.9,29.81,East,79,2.0,15.0,91,0.00,,,0.05,417.0,meteohub,2013-05-04 18:07:00,
2013-05-04 14:12:00,66.7,64.0,29.81,East,84,2.0,15.0,91,0.00,,,0.05,485.0,meteohub,2013-05-04 18:12:00,
2013-05-04 14:17:00,66.7,64.0,29.81,NNE,15,1.0,12.0,91,0.00,,,0.05,483.0,meteohub,2013-05-04 18:17:00,
2013-05-04 14:22:00,67.5,64.4,29.80,East,81,10.0,12.0,90,0.00,,,0.05,638.0,meteohub,2013-05-04 18:22:00,
2013-05-04 14:27:00,67.8,64.4,29.80,East,79,1.0,12.0,89,0.00,,,0.05,439.0,meteohub,2013-05-04 18:27:00,
2013-05-04 14:32:00,67.8,64.2,29.80,ENE,57,2.0,12.0,88,0.00,,,0.05,339.0,meteohub,2013-05-04 18:32:00,
2013-05-04 14:37:00,68.0,64.4,29.80,ENE,60,2.0,12.0,88,0.00,,,0.05,506.0,meteohub,2013-05-04 18:37:00,
2013-05-04 14:42:00,68.5,65.1,29.80,East,98,2.0,12.0,89,0.00,,,0.05,652.0,meteohub,2013-05-04 18:42:00,
2013-05-04 14:47:00,68.5,64.6,29.80,ENE,63,0.0,9.0,87,0.00,,,0.05,339.0,meteohub,2013-05-04 18:47:00,
2013-05-04 14:52:00,68.7,64.9,29.80,NNE,13,3.0,9.0,88,0.00,,,0.05,239.0,meteohub,2013-05-04 18:52:00,
2013-05-04 14:57:00,68.5,64.6,29.81,ENE,65,2.0,9.0,87,0.00,,,0.05,230.0,meteohub,2013-05-04 18:57:00,
2013-05-04 15:02:00,68.4,64.4,29.81,ENE,69,4.0,10.0,87,0.00,,,0.05,244.0,meteohub,2013-05-04 19:02:00,
2013-05-04 15:07:00,68.2,64.4,29.81,ESE,103,4.0,10.0,88,0.00,,,0.05,311.0,meteohub,2013-05-04 19:07:00,
2013-05-04 15:12:00,67.8,63.9,29.80,NE,56,0.0,12.0,87,0.00,,,0.05,288.0,meteohub,2013-05-04 19:12:00,
2013-05-04 15:17:00,67.6,64.0,29.80,NNW,332,0.0,14.0,88,0.00,,,0.05,345.0,meteohub,2013-05-04 19:17:00,
2013-05-04 15:22:00,67.6,64.2,29.79,ENE,64,1.0,14.0,89,0.00,,,0.05,441.0,meteohub,2013-05-04 19:22:00,
2013-05-04 15:28:00,67.6,64.6,29.80,NNE,19,2.0,18.0,90,0.00,,,0.05,380.0,meteohub,2013-05-04 19:28:00,
2013-05-04 15:35:00,67.8,65.1,29.79,East,82,1.0,18.0,91,0.00,,,0.05,178.0,meteohub,2013-05-04 19:35:00,
2013-05-04 15:41:00,67.6,64.9,29.79,NNE,32,3.0,6.0,91,0.00,,,0.05,162.0,meteohub,2013-05-04 19:41:00,
2013-05-04 15:47:00,67.3,64.6,29.79,ENE,78,0.0,9.0,91,0.00,,,0.05,116.0,meteohub,2013-05-04 19:47:00,
2013-05-04 15:52:00,66.9,64.2,29.80,ENE,69,9.0,10.0,91,0.00,,,0.05,91.0,meteohub,2013-05-04 19:52:00,
2013-05-04 15:57:00,66.6,63.9,29.80,NE,56,0.0,10.0,91,0.00,,,0.05,47.0,meteohub,2013-05-04 19:57:00,
2013-05-04 16:02:00,66.4,63.7,29.80,ENE,78,3.0,10.0,91,0.00,,,0.05,192.0,meteohub,2013-05-04 20:02:00,
2013-05-04 16:08:00,66.2,63.9,29.79,ENE,67,3.0,10.0,92,0.00,,,0.05,352.0,meteohub,2013-05-04 20:08:00,
2013-05-04 16:15:00,66.0,63.9,29.80,East,80,1.0,8.0,93,0.00,,,0.05,146.0,meteohub,2013-05-04 20:15:00,
2013-05-04 16:21:00,65.8,63.7,29.79,ENE,62,4.0,9.0,93,0.00,,,0.05,132.0,meteohub,2013-05-04 20:21:00,
2013-05-04 16:27:00,65.7,63.9,29.80,East,82,0.0,9.0,94,0.00,,,0.05,130.0,meteohub,2013-05-04 20:27:00,
2013-05-04 16:32:00,65.7,63.9,29.79,ENE,57,0.0,9.0,94,0.00,,,0.05,127.0,meteohub,2013-05-04 20:32:00,
2013-05-04 16:37:00,65.7,63.9,29.79,ENE,78,0.0,6.0,94,0.00,,,0.05,148.0,meteohub,2013-05-04 20:37:00,
2013-05-04 16:42:00,65.7,64.2,29.79,South,175,0.0,6.0,95,0.00,,,0.05,274.0,meteohub,2013-05-04 20:42:00,
2013-05-04 16:47:00,65.7,64.2,29.79,East,82,2.0,6.0,95,0.39,,,0.08,160.0,meteohub,2013-05-04 20:47:00,
2013-05-04 16:55:00,65.5,64.0,29.79,ENE,68,0.0,6.0,95,0.40,,,0.45,132.0,meteohub,2013-05-04 20:55:00,
2013-05-04 17:01:00,65.5,64.0,29.79,ENE,70,3.0,6.0,95,0.41,,,0.46,174.0,meteohub,2013-05-04 21:01:00,
2013-05-04 17:07:00,65.3,63.9,29.79,ENE,75,2.0,5.0,95,0.41,,,0.46,93.0,meteohub,2013-05-04 21:07:00,
2013-05-04 17:12:00,65.1,63.7,29.79,East,82,1.0,7.0,95,0.41,,,0.46,114.0,meteohub,2013-05-04 21:12:00,
2013-05-04 17:17:00,65.1,63.7,29.79,ENE,72,3.0,7.0,95,0.41,,,0.46,102.0,meteohub,2013-05-04 21:17:00,
2013-05-04 17:22:00,64.9,63.5,29.79,ENE,72,1.0,7.0,95,0.41,,,0.46,178.0,meteohub,2013-05-04 21:22:00,
2013-05-04 17:27:00,65.1,64.0,29.78,East,84,0.0,7.0,96,0.41,,,0.46,149.0,meteohub,2013-05-04 21:27:00,
2013-05-04 17:32:00,65.1,64.0,29.78,SSE,147,0.0,7.0,96,0.41,,,0.46,107.0,meteohub,2013-05-04 21:32:00,
2013-05-04 17:37:00,65.1,64.0,29.78,ENE,67,0.0,7.0,96,0.41,,,0.46,139.0,meteohub,2013-05-04 21:37:00,
2013-05-04 17:42:00,65.1,64.0,29.78,NE,51,3.0,7.0,96,0.41,,,0.46,237.0,meteohub,2013-05-04 21:42:00,
2013-05-04 17:47:00,65.1,64.0,29.78,East,83,1.0,9.0,96,0.03,,,0.47,149.0,meteohub,2013-05-04 21:47:00,
2013-05-04 17:53:00,65.1,64.0,29.78,ENE,65,3.0,9.0,96,0.03,,,0.48,130.0,meteohub,2013-05-04 21:53:00,
2013-05-04 17:59:00,64.9,63.9,29.77,ENE,75,1.0,7.0,96,0.02,,,0.48,179.0,meteohub,2013-05-04 21:59:00,
2013-05-04 18:05:00,65.1,64.0,29.77,North,350,2.0,7.0,96,0.02,,,0.48,125.0,meteohub,2013-05-04 22:05:00,
2013-05-04 18:11:00,65.1,64.0,29.77,East,92,2.0,6.0,96,0.02,,,0.48,67.0,meteohub,2013-05-04 22:11:00,
2013-05-04 18:17:00,64.9,63.9,29.77,East,94,0.0,6.0,96,0.02,,,0.48,56.0,meteohub,2013-05-04 22:17:00,
2013-05-04 18:22:00,65.1,64.0,29.77,East,88,6.0,6.0,96,0.02,,,0.48,40.0,meteohub,2013-05-04 22:22:00,
2013-05-04 18:27:00,65.1,64.0,29.77,East,80,0.0,6.0,96,0.02,,,0.48,39.0,meteohub,2013-05-04 22:27:00,
2013-05-04 18:33:00,65.1,64.0,29.77,NNE,17,0.0,6.0,96,0.02,,,0.48,39.0,meteohub,2013-05-04 22:33:00,
2013-05-04 18:39:00,65.1,64.0,29.77,East,88,0.0,6.0,96,0.02,,,0.48,32.0,meteohub,2013-05-04 22:39:00,
2013-05-04 18:45:00,65.1,64.0,29.77,ENE,71,3.0,7.0,96,0.00,,,0.48,37.0,meteohub,2013-05-04 22:45:00,
2013-05-04 18:51:00,65.1,64.0,29.77,East,89,0.0,7.0,96,0.00,,,0.48,54.0,meteohub,2013-05-04 22:51:00,
2013-05-04 18:57:00,65.1,64.0,29.77,South,183,2.0,7.0,96,0.00,,,0.48,54.0,meteohub,2013-05-04 22:57:00,
2013-05-04 19:02:00,65.3,64.0,29.76,ENE,71,1.0,7.0,96,0.00,,,0.48,40.0,meteohub,2013-05-04 23:02:00,
2013-05-04 19:07:00,65.3,64.0,29.76,ENE,60,0.0,7.0,96,0.00,,,0.48,44.0,meteohub,2013-05-04 23:07:00,
2013-05-04 19:12:00,65.5,64.2,29.75,NE,53,2.0,6.0,96,0.00,,,0.48,35.0,meteohub,2013-05-04 23:12:00,
2013-05-04 19:17:00,65.3,64.0,29.76,NE,49,1.0,7.0,96,0.00,,,0.48,14.0,meteohub,2013-05-04 23:17:00,
2013-05-04 19:22:00,65.3,64.0,29.76,East,95,0.0,7.0,96,0.00,,,0.48,16.0,meteohub,2013-05-04 23:22:00,
2013-05-04 19:27:00,65.1,64.0,29.76,ENE,71,1.0,7.0,96,0.00,,,0.48,11.0,meteohub,2013-05-04 23:27:00,
2013-05-04 19:32:00,65.1,64.0,29.76,SW,228,0.0,7.0,96,0.00,,,0.48,11.0,meteohub,2013-05-04 23:32:00,
2013-05-04 19:37:00,65.1,64.0,29.76,NE,55,0.0,7.0,96,0.00,,,0.48,14.0,meteohub,2013-05-04 23:37:00,
2013-05-04 19:43:00,64.9,63.9,29.76,East,84,0.0,6.0,96,0.00,,,0.48,7.0,meteohub,2013-05-04 23:43:00,
2013-05-04 19:50:00,64.9,63.9,29.76,ENE,76,0.0,7.0,96,0.00,,,0.48,5.0,meteohub,2013-05-04 23:50:00,
2013-05-04 19:56:00,64.8,63.7,29.76,ESE,109,1.0,11.0,96,0.00,,,0.48,0.0,meteohub,2013-05-04 23:56:00,
2013-05-04 20:02:00,64.8,63.7,29.77,East,84,0.0,11.0,96,0.00,,,0.48,0.0,meteohub,2013-05-05 00:02:00,
2013-05-04 20:07:00,64.8,63.7,29.77,SSE,150,1.0,5.0,96,0.00,,,0.00,0.0,meteohub,2013-05-05 00:07:00,
2013-05-04 20:14:00,64.6,63.5,29.76,East,83,0.0,7.0,96,0.00,,,0.00,0.0,meteohub,2013-05-05 00:14:00,
2013-05-04 20:21:00,64.6,63.5,29.77,East,80,0.0,7.0,96,0.00,,,0.00,0.0,meteohub,2013-05-05 00:21:00,
2013-05-04 20:27:00,64.6,63.5,29.77,East,88,0.0,10.0,96,0.00,,,0.00,0.0,meteohub,2013-05-05 00:27:00,
2013-05-04 20:32:00,64.6,63.5,29.76,East,80,0.0,10.0,96,0.00,,,0.00,0.0,meteohub,2013-05-05 00:32:00,
2013-05-04 20:37:00,64.6,63.5,29.77,NE,42,0.0,10.0,96,0.00,,,0.00,0.0,meteohub,2013-05-05 00:37:00,
2013-05-04 20:42:00,64.6,63.7,29.77,ENE,60,0.0,5.0,97,0.01,,,0.01,0.0,meteohub,2013-05-05 00:42:00,
2013-05-04 20:47:00,64.6,63.7,29.77,ENE,63,0.0,5.0,97,0.01,,,0.01,0.0,meteohub,2013-05-05 00:47:00,
2013-05-04 20:52:00,64.8,63.9,29.77,NE,53,2.0,6.0,97,0.01,,,0.01,0.0,meteohub,2013-05-05 00:52:00,
2013-05-04 20:57:00,64.8,63.9,29.77,ENE,74,0.0,6.0,97,0.01,,,0.01,0.0,meteohub,2013-05-05 00:57:00,
2013-05-04 21:02:00,64.9,64.0,29.77,ESE,102,5.0,11.0,97,0.02,,,0.02,0.0,meteohub,2013-05-05 01:02:00,
2013-05-04 21:07:00,64.9,64.0,29.77,South,182,0.0,11.0,97,0.02,,,0.02,0.0,meteohub,2013-05-05 01:07:00,
2013-05-04 21:12:00,65.1,64.2,29.77,ESE,104,2.0,11.0,97,0.02,,,0.02,0.0,meteohub,2013-05-05 01:12:00,
2013-05-04 21:17:00,65.1,64.2,29.76,ESE,122,1.0,10.0,97,0.02,,,0.02,0.0,meteohub,2013-05-05 01:17:00,
2013-05-04 21:22:00,65.1,64.2,29.77,NNE,33,4.0,12.0,97,0.02,,,0.02,0.0,meteohub,2013-05-05 01:22:00,
2013-05-04 21:28:00,65.1,64.2,29.76,North,349,0.0,12.0,97,0.02,,,0.02,0.0,meteohub,2013-05-05 01:28:00,
2013-05-04 21:34:00,65.1,64.2,29.77,South,175,0.0,12.0,97,0.02,,,0.02,0.0,meteohub,2013-05-05 01:34:00,
2013-05-04 21:40:00,65.1,64.2,29.77,ENE,61,2.0,10.0,97,0.01,,,0.02,0.0,meteohub,2013-05-05 01:40:00,
2013-05-04 21:47:00,65.1,64.2,29.77,South,173,2.0,10.0,97,0.01,,,0.02,0.0,meteohub,2013-05-05 01:47:00,
2013-05-04 21:52:00,65.1,64.2,29.77,NE,47,1.0,10.0,97,0.01,,,0.02,0.0,meteohub,2013-05-05 01:52:00,
2013-05-04 21:57:00,65.3,64.4,29.78,East,98,1.0,10.0,97,0.00,,,0.02,0.0,meteohub,2013-05-05 01:57:00,
2013-05-04 22:02:00,65.3,64.4,29.78,NE,50,0.0,9.0,97,0.00,,,0.02,0.0,meteohub,2013-05-05 02:02:00,
2013-05-04 22:07:00,65.3,64.4,29.78,NW,326,2.0,6.0,97,0.00,,,0.02,0.0,meteohub,2013-05-05 02:07:00,
2013-05-04 22:12:00,65.3,64.4,29.77,NNE,28,0.0,6.0,97,0.00,,,0.02,0.0,meteohub,2013-05-05 02:12:00,
2013-05-04 22:17:00,65.3,64.4,29.78,East,96,1.0,6.0,97,0.00,,,0.02,0.0,meteohub,2013-05-05 02:17:00,
2013-05-04 22:22:00,65.3,64.4,29.78,NNE,17,0.0,7.0,97,0.00,,,0.02,0.0,meteohub,2013-05-05 02:22:00,
2013-05-04 22:27:00,65.3,64.4,29.77,ENE,71,0.0,9.0,97,0.00,,,0.02,0.0,meteohub,2013-05-05 02:27:00,
2013-05-04 22:32:00,65.5,64.6,29.78,ENE,73,0.0,9.0,97,0.01,,,0.03,0.0,meteohub,2013-05-05 02:32:00,
2013-05-04 22:37:00,65.5,64.6,29.78,East,93,0.0,9.0,97,0.01,,,0.03,0.0,meteohub,2013-05-05 02:37:00,
2013-05-04 22:42:00,65.5,64.6,29.78,ESE,105,4.0,5.0,97,0.02,,,0.03,0.0,meteohub,2013-05-05 02:42:00,
2013-05-04 22:47:00,65.5,64.6,29.78,NE,55,1.0,8.0,97,0.02,,,0.04,0.0,meteohub,2013-05-05 02:47:00,
2013-05-04 22:52:00,65.5,64.6,29.78,ESE,103,0.0,8.0,97,0.02,,,0.04,0.0,meteohub,2013-05-05 02:52:00,
2013-05-04 22:57:00,65.5,64.6,29.77,NE,53,2.0,8.0,97,0.02,,,0.04,0.0,meteohub,2013-05-05 02:57:00,
2013-05-04 23:10:00,65.7,64.8,29.78,ENE,57,0.0,4.0,97,0.02,,,0.04,0.0,meteohub,2013-05-05 03:10:00,
2013-05-04 23:16:00,65.7,64.8,29.78,NE,44,1.0,5.0,97,0.02,,,0.04,0.0,meteohub,2013-05-05 03:16:00,
2013-05-04 23:22:00,65.7,64.8,29.77,East,96,0.0,6.0,97,0.02,,,0.04,0.0,meteohub,2013-05-05 03:22:00,
2013-05-04 23:27:00,65.8,64.9,29.77,SE,126,6.0,6.0,97,0.02,,,0.05,0.0,meteohub,2013-05-05 03:27:00,
2013-05-04 23:32:00,65.8,64.9,29.77,NE,55,0.0,6.0,97,0.02,,,0.05,0.0,meteohub,2013-05-05 03:32:00,
2013-05-04 23:37:00,65.8,64.9,29.77,SSE,168,0.0,6.0,97,0.02,,,0.05,0.0,meteohub,2013-05-05 03:37:00,
2013-05-04 23:42:00,65.8,64.9,29.77,ENE,76,1.0,6.0,97,0.01,,,0.05,0.0,meteohub,2013-05-05 03:42:00,
2013-05-04 23:47:00,66.0,65.1,29.77,South,178,0.0,6.0,97,0.01,,,0.05,0.0,meteohub,2013-05-05 03:47:00,
2013-05-04 23:52:00,66.0,65.1,29.77,East,92,1.0,6.0,97,0.01,,,0.05,0.0,meteohub,2013-05-05 03:52:00,
2013-05-04 23:57:00,66.0,65.1,29.77,ENE,74,0.0,6.0,97,0.01,,,0.05,0.0,meteohub,2013-05-05 03:57:00,